Regional Weather Roundup
Issued by NWS Sterling, VA

Home | Current Version | Previous Version | Text Only | Print | Product List | Glossary Off
Versions: 1 2 3 4 5 6 7 8 9 10 11 12 13 14 15 16 17 18 19 20 21 22 23 24 25 26 27

000
ASUS41 KLWX 240510
RWRLWX

REGIONAL WEATHER ROUNDUP
NATIONAL WEATHER SERVICE BALTIMORE MD/WASHINGTON DC
100 AM EDT FRI OCT 24 2014

Note: "FAIR" indicates few or no clouds below 12,000 feet
with no significant weather and/or obstructions to visibility.
 TC=TEMPERATURE CELSIUS

 * =Non NWS site. Station does not report precipitation (e.g. rain,
    snow, etc.), thunder, or fog.

DCZ001-MDZ009-015-VAZ040>042-051-053>054-240600-
WASHINGTON METRO

CITY           SKY/WX    TMP DP  RH WIND       PRES   REMARKS
WASHINGTON NAT PTCLDY    61  39  44 NW14      29.92F
DULLES         CLEAR     56  39  53 NW16G24   29.93S
ANDREWS AFB    CLEAR     58  40  52 NW12      29.90S
FT BELVOIR     CLEAR     59  40  50 NW14      29.92S
QUANTICO       CLEAR     57  42  57 NW12      29.94R
COLLEGE PARK*  CLEAR     59  41  51 NW8       29.90F
LEESBURG*      CLEAR     57  43  58 N10G22    29.95S
MANASSAS*      CLEAR     57  43  58 NW13      29.95R
GAITHERSBURG*  CLEAR     55  37  50 NW9G17    29.95F

$$

MDZ006>007-011-014-240600-
BALTIMORE METRO

CITY           SKY/WX    TMP DP  RH WIND       PRES   REMARKS
BWI AIRPORT    PTCLDY    54  42  64 W10       29.88F
MD SCIENCE CTR   N/A     60  41  49 MISG      29.87F
MARTIN STATE   CLOUDY    55  50  82 CALM      29.89S
ANNAPOLIS      PTCLDY    56  48  74 W6        29.88S
FORT MEADE*    CLEAR     50  45  81 W3        29.92S

$$

MDZ012-015-019>023-240600-
MARYLAND EASTERN SHORE

CITY           SKY/WX    TMP DP  RH WIND       PRES   REMARKS
OCEAN CITY     CLEAR     52  45  77 VRB3      29.85S
SALISBURY      PTCLDY    57  46  66 W5        29.86S
BAY BRIDGE AP*   N/A     57  50  77 W5        29.88S
CAMBRIDGE*     CLOUDY    59  46  63 NW3       29.87S
EASTON*        MOCLDY    56  50  79 NW3       29.91R

$$

MDZ017>025-240600-
SOUTHERN MARYLAND

CITY           SKY/WX    TMP DP  RH WIND       PRES   REMARKS
PATUXENT RIVER CLOUDY    53  46  77 W7        29.89S
ST INIGOES     PTCLDY    57  45  64 W6        29.89S
LEONARDTOWN*   PTCLDY    52  45  76 CALM      29.91S

$$

MDZ003>005-240600-
NORTH CENTRAL MARYLAND

CITY           SKY/WX    TMP DP  RH WIND       PRES   REMARKS
FREDERICK*     PTCLDY    61  37  41 NW12      29.97R
HAGERSTOWN APT CLEAR     54  40  59 NW14      29.95S
WESTMINSTER*   CLOUDY    55  39  54 NW12G17   29.91S

$$

MDZ501>502-240600-
WESTERN MARYLAND

CITY           SKY/WX    TMP DP  RH WIND       PRES   REMARKS
OAKLAND*       CLOUDY    41 N/A N/A NW5       30.04F
CUMBERLAND*    CLEAR     54  41  62 NW5       30.07R

$$

VAZ025>031-240600-
SHENANDOAH VALLEY

CITY           SKY/WX    TMP DP  RH WIND       PRES   REMARKS
WINCHESTER*    CLEAR     55  36  47 NW22      29.98S
FRONT ROYAL*   FAIR      54  41  62 NW5       29.98R
LURAY*         FAIR      54  43  66 E5        30.00S
NEW MARKET*    FAIR      44  41  87 CALM      30.01S
STAUNTON*      CLEAR     41  38  86 CALM      30.03F
WAYNESBORO*    FAIR      44  39  80 W3        30.01F

$$

WVZ021-048>050-054>055-240600-
EASTERN WEST VIRGINIA PANHANDLE

CITY           SKY/WX    TMP DP  RH WIND       PRES   REMARKS
MARTINSBURG    MOCLDY    55  37  50 VRB5      29.98S
PETERSBURG*    CLEAR     47  41  80 CALM      30.05S

$$

VAZ036>039-050-240600-
CENTRAL FOOTHILLS

CITY           SKY/WX    TMP DP  RH WIND       PRES   REMARKS
CHARLOTTESVILL CLEAR     53  41  63 S6        29.98R
CULPEPER*      CLEAR     57  43  58 CALM      29.97R
ORANGE*        CLEAR     55  43  62 W5        29.98R
GORDONSVILLE*  FAIR      56  42  58 NW7       29.96S
WARRENTON*     FAIR      58  48  70 NW9G18    29.95R

$$

VAZ055>057-240600-
NORTH AND CENTRAL PIEDMONT

CITY           SKY/WX    TMP DP  RH WIND       PRES   REMARKS
FREDERICKSBRG* CLEAR     58  44  60 NW8       29.94R
STAFFORD*      CLEAR     56  40  55 NW10      29.98R

$$

NCZ024-NYZ072-PAZ021-071-VAZ022-071-240600-
OTHER REGIONAL OBSERVATIONS

CITY           SKY/WX    TMP DP  RH WIND       PRES   REMARKS
NEW YORK CITY  CLOUDY    52  43  71 VRB7      29.79F
PHILADELPHIA   MOCLDY    55  44  66 NW13G22   29.82F
PITTSBURGH     PTCLDY    42  40  92 W7        30.07F
ROANOKE        CLEAR     48  39  71 NW3       30.10R
RICHMOND       CLEAR     55  43  63 W9        29.96R
RALEIGH        PTCLDY    52  41  66 N3        30.02S

$$

ANZ530>537-240600-
MARINE OBSERVATIONS

STATION/POSITION TIME  TEMP    WIND        PRES
                       AIR SEA DIR/SP/G
                 (UTC) (F)     (DEG/KT/KT) (MB)
THOMAS PT LIGHT  0500   59 62  290/  8/  9 1012.8F
BALT KEY BRIDGE  0500   59     240/  5/  7 1011.5S
COVE POINT       0500   58     310/  7/  9 1011.8F
LEWISETTA        0500   58 59  290/  8/  9 1012.1R
SOLOMONS ISLAND  0500      64                N/A
PINEY POINT      0500          330/ 17/ 19   N/A

$$




USA.gov is the U.S. government's official web portal to all federal, state and local government web resources and services.